Home > Weather > Carson City > Past weeks

Flag for USA Past Weather in Carson City, Nevada, USA — Yesterday and Last 2 Weeks

Now
56 °F

Broken clouds.


Feels Like: 56 °F
Forecast: 41 / 58 °F
Wind: No wind

Location: Reno Tahoe International Airport

Current Time: May 24, 2016 at 10:55:11 AM

Latest Report: May 24, 2016 at 9:55 AM


Visibility: 10 mi

Pressure: 29.83 "Hg (25.17 "Hg at 1425m altitude)

Humidity: 49%

Dew Point: 37 °F

Location of Carson CityLocation

Past Weather in Carson City — Graph

°F

Carson City Temperature Yesterday

Maximum temperature yesterday: 64 °F (at 2:55 PM)
Minimum temperature yesterday: 39 °F (at 3:55 AM)
Average temperature yesterday: 52 °F

High & Low Weather Summary for the Past Weeks

 TemperatureHumidityPressure
High85 °F (May 12, 3:55 PM)73% (May 22, 5:55 AM)30.13 "Hg (May 22, 5:55 AM)
Low37 °F (May 22, 5:55 AM)10% (May 19, 4:55 PM)29.41 "Hg (May 20, 4:55 AM)
Average60 °F39%29.89 "Hg
* Reported May 9 9:55 AM — May 24 9:55 AM, Carson City, Weather by CustomWeather, © 2016

Note: Actual official high and low records may vary slightly from our data, if they occured in-between our weather recording intervals... More about our weather records

Advertising

Carson City Weather History for the Previous 24 Hours

Scroll right to see more
 ConditionsComfort  
Time TempWeatherWind HumidityBarometerVisibility
9:55 AM
Tue, May 24
56 °FBroken clouds.No wind49%29.83 "Hg10 mi
8:55 AM54 °FBroken clouds.3 mph57%29.84 "Hg10 mi
7:55 AM51 °FPartly sunny.3 mph63%29.84 "Hg10 mi
6:55 AM49 °FPartly sunny.5 mph69%29.83 "Hg10 mi
5:55 AM48 °FPassing clouds.6 mph71%29.81 "Hg10 mi
4:55 AM49 °FPassing clouds.7 mph71%29.79 "Hg10 mi
3:55 AM49 °FPassing clouds.8 mph69%29.79 "Hg10 mi
2:55 AM50 °FPartly cloudy.7 mph66%29.79 "Hg10 mi
1:55 AM51 °FPartly cloudy.7 mph63%29.80 "Hg10 mi
12:55 AM50 °FPassing clouds.6 mph66%29.81 "Hg10 mi
11:55 PM
Mon, May 23
51 °FPassing clouds.5 mph63%29.82 "Hg10 mi
10:55 PM51 °FPartly cloudy.5 mph66%29.83 "Hg10 mi
9:55 PM53 °FPassing clouds.7 mph56%29.82 "Hg10 mi
8:55 PM52 °FPartly sunny.10 mph59%29.80 "Hg10 mi
7:55 PM51 °FBroken clouds.16 mph66%29.81 "Hg10 mi
6:55 PM55 °FLight rain. Mostly cloudy.16 mph62%29.80 "Hg10 mi
5:55 PM58 °FLight rain. Cloudy.13 mph46%29.79 "Hg10 mi
4:55 PM63 °FPartly sunny.14 mph33%29.77 "Hg10 mi
3:55 PM64 °FPartly sunny.9 mph28%29.77 "Hg10 mi
2:55 PM64 °FMostly cloudy.5 mph26%29.77 "Hg10 mi
1:55 PM63 °FMore clouds than sun.3 mph26%29.79 "Hg10 mi
12:55 PM60 °FMore clouds than sun.8 mph27%29.81 "Hg10 mi
11:55 AM58 °FMore clouds than sun.No wind30%29.84 "Hg10 mi
10:55 AM57 °FPartly sunny.6 mph33%29.86 "Hg10 mi
Weather by CustomWeather, © 2016

See weather overviewHow to use our weather pages